Location: Chèvreville
(49.1099°N, 2.8495°E)
Time: 12:45:22
(UTC+00:00)

Cosmos 1763 Rocket - Visible Passes

Search period start: 25 September 2023 00:00
Search period end: 05 October 2023 00:00
Orbit: 732 x 777 km, 74.0° (Epoch: 24 September)

Date Brightness Start Highest point End Pass type
(mag) Time Alt. Az. Time Alt. Az. Time Alt. Az.
25 Sep 4.9 20:43:45 10° N 20:46:50 28° NNE 20:46:50 28° NNE visible
25 Sep 5.9 22:25:29 10° NW 22:26:48 17° NW 22:26:48 17° NW visible
26 Sep 5.0 20:03:07 10° N 20:06:31 21° NE 20:06:31 21° NE visible
26 Sep 5.4 21:44:15 10° NNW 21:46:30 26° NNW 21:46:30 26° NNW visible
27 Sep 5.4 19:22:48 10° N 19:25:32 14° NE 19:26:13 14° NE visible
27 Sep 4.8 21:03:12 10° NNW 21:06:12 35° N 21:06:12 35° N visible
27 Sep 6.4 22:46:06 10° NW 22:46:10 10° NW 22:46:10 10° NW visible
28 Sep 4.5 20:22:20 10° NNW 20:25:55 35° NNE 20:25:55 35° NNE visible
28 Sep 5.9 22:04:20 10° NW 22:05:55 18° NW 22:05:55 18° NW visible
29 Sep 4.7 19:41:37 10° N 19:45:40 26° NE 19:45:40 26° NE visible
29 Sep 5.2 21:23:00 10° NNW 21:25:40 30° NW 21:25:40 30° NW visible
30 Sep 5.1 19:01:08 10° N 19:04:27 17° NE 19:05:27 16° ENE visible
30 Sep 4.3 20:41:53 10° NNW 20:45:26 46° NNW 20:45:26 46° NNW visible
30 Sep 6.4 22:25:21 10° WNW 22:25:25 10° WNW 22:25:25 10° WNW visible
01 Oct 5.5 18:21:16 10° NNE 18:22:52 11° NE 18:24:29 10° ENE visible
01 Oct 3.9 20:00:56 10° NNW 20:05:15 47° NE 20:05:15 47° NE visible
01 Oct 5.8 21:43:16 10° NW 21:45:14 19° WNW 21:45:14 19° WNW visible
02 Oct 4.3 19:20:09 10° N 19:24:42 31° NE 19:25:05 31° ENE visible
02 Oct 4.9 21:01:46 10° NW 21:05:04 34° WNW 21:05:04 34° WNW visible
03 Oct 4.9 18:39:32 10° N 18:43:20 20° NE 18:44:58 18° ENE visible
03 Oct 3.8 20:20:35 10° NNW 20:24:58 63° NW 20:24:58 63° NW visible
04 Oct 5.3 17:59:18 10° NNE 18:01:49 13° NE 18:04:20 10° ENE visible
04 Oct 3.4 19:39:33 10° NNW 19:44:40 63° ENE 19:44:53 63° ENE visible
04 Oct 5.7 21:22:15 10° NW 21:24:53 19° W 21:24:53 19° W visible
